Hourly Data Report for October 29, 2013

All times are specified in Local Standard Time (LST). Add 1 hour to adjust for Daylight Saving Time where and when it is observed.

PANGNIRTUNG
NUNAVUT

66°08'36.300" N
65°42'40.500" W
22.60 m
2403049
71826
WXP

Download Data

Hourly Data (October 2013)
Hourly Data Report for October 29, 2013
Temp Definition
°C
Dew Point Temp Definition
°C
Rel Hum Definition
%
Wind Dir Definition
10's deg

Wind Spd Definition
km/h
Visibility Definition
km
Stn Press Definition
kPa
Hmdx Definition


Wind Chill Definition


Weather Definition


TIME
00:00 -5.4 -11.2 64 9 7   99.58   -9 LegendNANA
01:00 -4.8 -10.7 63 12 9   99.58   -9 LegendNANA
02:00 -5.2 -11.4 62 11 17   99.58   -11 LegendNANA
03:00 -5.2 -11.0 64 8 9   99.59   -9 LegendNANA
04:00 -5.0 -11.3 61 10 9   99.59   -9 LegendNANA
05:00 -5.4 -11.6 62 12 13   99.59   -11 LegendNANA
06:00 -5.9 -11.9 63 10 6   99.60   -9 LegendNANA
07:00 -4.7 -11.8 58 10 9   99.64   -9 LegendNANA
08:00 -5.3 -11.6 61 10 13   99.66   -10 LegendNANA
09:00 -5.7 -11.4 64 9 9   99.67   -10 LegendNANA
10:00 -4.6 -11.7 58 10 9   99.67   -8 LegendNANA
11:00 -4.8 -11.8 58 9 6   99.68   -8 LegendNANA
12:00 -4.5 -11.8 57 12 7   99.69   -8 LegendNANA
13:00 -4.7 -11.5 59 8 6   99.72   -7 LegendNANA
14:00 -5.0 -11.8 59 11 6   99.76   -8 LegendNANA
15:00 -5.7 -11.9 62 12 2   99.78   -7 LegendNANA
16:00 -5.7 -11.9 62 11 6   99.80   -9 LegendNANA
17:00 -6.3 -12.2 63 12 11   99.85   -11 LegendNANA
18:00 -6.3 -12.4 62 14 2   99.89   -7 LegendNANA
19:00 -7.0 -12.8 63 18 4   99.92   -9 LegendNANA
20:00 -6.3 -12.8 60 12 4   99.93   -8 LegendNANA
21:00 -5.8 -12.9 57 17 4   99.94   -8 LegendNANA
22:00 -6.7 -12.4 64 12 4   99.93   -9 LegendNANA
23:00 -6.2 -12.5 61 11 9   99.93   -10 LegendNANA

Notes on Data Quality.

Legend

  • E = Estimated
  • M = Missing
  • NA = Not Available
  • ‡ = Partner data that is not subject to review by the National Climate Archives
Date modified: